Location: Stamford Observatory
(41.1241°N, 73.5498°W)
Time: 08:46:24
(UTC-05:00)

Daily predictions for brighter satellites

Satellite Brightness Start Highest point End
(mag) Time Altitude Azimuth Time Altitude Azimuth Time Altitude Azimuth
NOSS 3-3 (A) 4.3 16:45:42 10° SW 16:51:52 73° NW 16:58:35 10° NNE
NOSS 3-3 (C) 4.3 16:45:48 10° SW 16:51:59 73° NW 16:58:41 10° NNE
Cosmos 2366 rocket 4.0 16:47:57 10° N 16:54:20 81° E 17:00:36 10° S
Meteor 1-18 Rocket 4.3 16:50:29 10° S 16:56:09 88° E 17:02:00 10° N
ATLAS 2AS CENTAUR R/B 4.2 16:52:32 10° NW 17:00:11 49° WSW 17:07:17 10° S
Okean 1 3.3 16:56:50 10° S 17:00:52 77° E 17:04:58 10° N
SJ-12 4.1 16:57:15 10° SSE 17:01:13 51° ENE 17:05:15 10° N
Tiangong 1 1.0 16:58:27 10° W 17:01:29 68° N 17:04:31 10° ENE
Cosmos 1346 Rocket 2.9 16:57:55 10° S 17:01:43 55° E 17:05:30 10° NNE
Intercosmos 25 4.2 16:59:32 10° NNE 17:02:06 22° ENE 17:04:56 10° SE
Cosmos 2082 Rocket 2.3 16:57:19 10° NNW 17:02:54 56° ENE 17:08:29 10° SE
CZ-3B DEB 2.6 17:00:39 10° WSW 17:04:09 51° NNW 17:12:46 10° NE
Cosmos 1544 Rocket 4.5 16:59:48 10° NNW 17:04:11 55° W 17:08:31 10° S
Cosmos 2218 Rocket 4.4 17:01:15 10° NNW 17:07:28 71° W 17:13:35 10° S
AQUARIUS 4.2 17:03:18 10° SSE 17:07:42 56° ENE 17:12:07 10° N
Cosmos 1500 3.1 17:05:31 10° N 17:09:21 69° E 17:13:12 10° SSE
Cosmos 921 Rocket 3.1 17:07:21 10° S 17:11:31 56° ESE 17:15:48 10° NNE
COSMO-SKYMED 1 3.8 17:10:02 10° NE 17:13:29 23° E 17:16:55 10° SSE
Cosmos 1743 3.3 17:10:40 10° N 17:14:16 36° ENE 17:17:50 10° SE
Cosmos 1025 Rocket 4.0 17:11:17 10° SE 17:14:56 26° E 17:18:37 10° NNE
ISS -1.0 17:17:31 10° NNW 17:19:14 13° N 17:20:54 10° NNE
Cosmos 1821 Rocket 4.2 17:21:20 10° N 17:27:08 45° ENE 17:32:57 10° SSE
Cosmos 1371 Rocket 4.2 17:23:20 10° S 17:28:32 55° ESE 17:33:46 10° NNE
Timation 1 Rocket 4.4 17:25:06 10° SSW 17:31:03 89° WNW 17:37:05 10° NNE
Abrixas 4.0 17:28:45 10° WNW 17:31:30 35° SW 17:34:14 10° SSE
Meteor 1-19 Rocket 4.3 17:26:37 10° S 17:32:21 63° E 17:38:09 10° NNE
Meteor 2-16 Rocket 4.4 17:26:39 10° N 17:32:40 61° E 17:38:40 10° SSE
Meteor 2-21 Rocket 4.4 17:26:59 10° N 17:33:12 75° E 17:39:18 10° SSE
Cosmos 1484 Rocket 3.0 17:32:48 10° SE 17:36:20 42° ENE 17:39:52 10° N
YAOGAN 1 2.7 17:32:09 10° S 17:36:28 77° WSW 17:40:49 10° NNW
CORIOLIS 4.2 17:31:38 10° SSE 17:37:02 85° WSW 17:42:28 10° NNW
Timation 2 Rocket 4.5 17:30:54 10° NNW 17:37:45 74° WSW 17:44:36 10° SSE
NOSS 7 (E) 4.3 17:34:35 10° SSW 17:38:04 78° ESE 17:40:10 21° NE
Cosmos 2369 Rocket 3.5 17:36:06 10° SE 17:39:59 19° E 17:40:59 18° E
Cosmos 2058 Rocket 4.1 17:37:06 10° NNE 17:40:45 24° ENE 17:44:20 10° SE
SPOT 3 Rocket 4.0 17:36:00 10° S 17:41:08 67° WSW 17:46:18 10° NNW
Meteor 2-9 Rocket 4.3 17:36:23 10° N 17:41:34 46° ENE 17:46:39 10° SSE
NOSS 2-1 (D) 3.7 17:38:06 10° SW 17:41:53 60° NW 17:45:29 14° NNE
NOSS 2-1 (C) 3.7 17:38:45 10° SW 17:42:34 62° NW 17:46:09 14° NNE
BREEZE M DEB (TANK) 2.9 17:33:20 10° SW 17:42:43 85° SSE 17:44:40 25° ENE
NOSS 7 (D) 4.3 17:46:15 10° SW 17:49:46 85° NW 17:51:28 27° NNE
Meteor 2-4 Rocket 3.5 17:47:08 10° S 17:52:26 66° E 17:57:44 10° NNE
Meteor 1-23 Rocket 4.2 17:48:04 10° S 17:53:39 59° E 17:59:10 10° NNE
Nadezhda 3 Rocket 4.3 17:49:35 10° SSW 17:55:47 70° W 18:02:05 10° N
Okean 2 3.6 17:54:19 10° SSE 17:58:19 48° E 18:00:15 27° NE
Cosmos 1190 Rocket 3.9 17:53:14 10° NNW 17:58:26 60° ENE 18:03:33 10° SSE
Cosmos 1452 Rocket 4.2 17:53:57 10° SSE 17:58:29 31° E 17:59:27 29° E
Delta 2 Rocket 4.4 17:55:44 10° WSW 17:58:58 32° S 18:01:05 19° SE
NOSS 2-1 (E) 4.3 17:57:37 10° WSW 18:01:22 44° NW 18:04:23 18° NNE
SKYMED 2 3.4 17:57:39 12° NNE 18:01:44 78° ESE 18:06:04 10° S
Cosmos 1340 3.2 17:59:41 10° SSE 18:02:53 37° ESE 18:02:53 37° ESE
METEOR-M 4.4 18:00:51 10° SE 18:05:50 42° ENE 18:10:50 10° N
CZ-4 R/B 4.1 18:05:02 10° SSW 18:08:17 22° W 18:11:32 10° NW
BREEZE-M DEB (TANK) 4.0 18:04:43 10° WNW 18:09:53 29° N 18:11:00 26° NNE
GEOS 3 Rocket 4.2 18:12:10 34° NE 18:12:28 34° NE 18:17:03 10° NNW
IDEFIX/ARIANE 42P 4.4 18:10:12 10° SSW 18:14:49 33° W 18:19:29 10° NNW
Cosmos 1892 Rocket 3.4 18:11:04 10° S 18:15:23 70° E 18:17:16 33° NNE
USA 234 3.5 18:11:47 22° NE 18:16:08 65° NW 18:22:34 10° WSW
Cosmos 1727 Rocket 4.1 18:11:26 10° SSE 18:17:23 50° E 18:21:20 21° NNE
Cosmos 1726 Rocket 3.5 18:16:17 10° N 18:20:46 86° E 18:25:14 10° S
Cosmos 1666 3.3 18:19:40 10° NNW 18:23:29 56° W 18:27:16 10° S
DMSP B5D1-3 4.5 18:20:10 15° NNE 18:24:31 87° WNW 18:29:39 10° SSW
Meteor 2-8 Rocket 4.4 18:20:34 10° S 18:26:39 85° W 18:32:49 10° N
Cosmos 1934 Rocket 4.4 18:29:48 10° NNW 18:35:58 66° W 18:42:12 10° S
NOSS 3-4 (A) 4.2 18:29:39 10° NW 18:36:37 63° WSW 18:44:00 10° SSE
NOSS 3-4 (C) 4.2 18:29:45 10° NW 18:36:44 64° WSW 18:44:06 10° SSE
Tiangong 1 3.1 18:34:46 10° WNW 18:36:16 26° WNW 18:36:16 26° WNW
BREEZE M DEB (TANK) 3.7 18:40:24 10° WNW 18:44:38 85° NNE 18:50:56 29° ESE
Cosmos 407 Rocket 4.0 18:42:32 10° NNW 18:47:35 58° WSW 18:52:38 10° S
COSMO-SKYMED 1 4.3 18:46:16 12° N 18:49:39 31° WNW 18:53:28 10° SW
Cosmos 1339 Rocket 4.3 18:45:22 10° S 18:51:25 83° E 18:53:26 45° NNE
Meteor 1-28 Rocket 4.3 18:51:38 41° WNW 18:51:40 41° WNW 18:55:14 10° SW
Cosmos 676 Rocket 4.3 18:55:11 10° NNW 19:00:19 63° WSW 19:02:36 32° S
Cosmos 1954 Rocket 4.3 18:58:50 10° NNW 19:03:04 58° NW 19:03:04 58° NW
Cosmos 2369 Rocket 2.7 19:17:51 10° SW 19:22:51 56° W 19:22:51 56° W
ATLAS 3B CENTAUR R/B 4.5 19:19:40 10° W 19:34:03 31° SSW 19:37:23 24° S
CZ-3B DEB 4.4 19:34:09 10° NW 19:40:52 38° NNE 19:41:22 37° NNE
Cosmos 1943 Rocket 4.4 19:42:27 10° SSW 19:43:25 15° SSW 19:43:25 15° SSW
FALCON 9 R/B 4.1 20:03:20 10° W 20:13:37 36° SW 20:13:37 36° SW
